| time (UTC) | temp F | wind direction | speed MPH | gust MPH | rain 1hr in | rain 24hr in | rain mn in | humidity % | barometer mb |
| 20260509011624 | 50 | 236 | 0.0 | 0.0 | 0.00 | 0.00 | 0.00 | 81 | 1011.4 |
| 20260509011121 | 50 | 236 | 0.0 | 0.0 | 0.00 | 0.00 | 0.00 | 81 | 1011.3 |
| 20260509010633 | 50 | 236 | 0.0 | 0.0 | 0.00 | 0.00 | 0.00 | 80 | 1011.3 |
| 20260509010139 | 50 | 236 | 0.0 | 0.0 | 0.00 | 0.00 | 0.00 | 78 | 1011.2 |
| 20260509005626 | 50 | 236 | 0.0 | 0.0 | 0.00 | 0.00 | 0.00 | 77 | 1011.1 |
| 20260509005139 | 51 | 236 | 0.0 | 0.0 | 0.00 | 0.00 | 0.00 | 76 | 1011.1 |
| 20260509004634 | 51 | 236 | 0.0 | 0.0 | 0.00 | 0.00 | 0.00 | 75 | 1011.1 |
| 20260509004124 | 52 | 236 | 0.0 | 0.0 | 0.00 | 0.00 | 0.00 | 74 | 1010.9 |
| 20260509003636 | 52 | 236 | 0.0 | 0.0 | 0.00 | 0.00 | 0.00 | 74 | 1010.9 |
| 20260509003124 | 53 | 236 | 0.0 | 0.0 | 0.00 | 0.00 | 0.00 | 72 | 1010.8 |
| 20260509002639 | 54 | 236 | 0.0 | 0.0 | 0.00 | 0.00 | 0.00 | 71 | 1010.7 |
| 20260509002124 | 54 | 236 | 0.0 | 0.0 | 0.00 | 0.00 | 0.00 | 72 | 1010.7 |
| 20260509001638 | 55 | 236 | 0.0 | 0.0 | 0.00 | 0.00 | 0.00 | 72 | 1010.7 |
| 20260509001127 | 55 | 237 | 0.0 | 0.0 | 0.00 | 0.00 | 0.00 | 71 | 1010.8 |
| 20260509000619 | 55 | 237 | 0.0 | 0.0 | 0.00 | 0.00 | 0.00 | 70 | 1010.8 |
| 20260509000135 | 56 | 237 | 0.0 | 0.0 | 0.00 | 0.00 | 0.00 | 70 | 1010.9 |
| 20260508235644 | 56 | 237 | 0.0 | 0.0 | 0.00 | 0.00 | 0.00 | 70 | 1011.0 |
| 20260508235159 | 56 | 237 | 0.0 | 0.0 | 0.00 | 0.00 | 0.00 | 70 | 1010.9 |
| 20260508234624 | 56 | 237 | 0.0 | 0.0 | 0.00 | 0.00 | 0.00 | 69 | 1011.0 |
| 20260508234119 | 56 | 237 | 0.0 | 0.0 | 0.00 | 0.00 | 0.00 | 65 | 1011.0 |
| 20260508233649 | 57 | 237 | 0.0 | 0.0 | 0.00 | 0.00 | 0.00 | 66 | 1011.0 |
| 20260508233121 | 57 | 237 | 0.0 | 0.0 | 0.00 | 0.00 | 0.00 | 64 | 1010.9 |
| 20260508232638 | 57 | 237 | 0.0 | 0.0 | 0.00 | 0.00 | 0.00 | 61 | 1011.0 |
| 20260508232123 | 58 | 237 | 0.0 | 2.0 | 0.00 | 0.00 | 0.00 | 60 | 1010.9 |
| 20260508231635 | 58 | 237 | 0.0 | 3.0 | 0.00 | 0.00 | 0.00 | 61 | 1011.0 |
| 20260508231123 | 58 | 237 | 0.0 | 4.0 | 0.00 | 0.00 | 0.00 | 59 | 1010.9 |
| 20260508230617 | 58 | 237 | 1.0 | 5.0 | 0.00 | 0.00 | 0.00 | 58 | 1010.9 |
| 20260508230131 | 59 | 262 | 1.0 | 8.0 | 0.00 | 0.00 | 0.00 | 58 | 1010.8 |
| 20260508225643 | 59 | 214 | 4.0 | 11.0 | 0.00 | 0.00 | 0.00 | 55 | 1010.8 |
| 20260508225156 | 60 | 230 | 5.0 | 11.0 | 0.00 | 0.00 | 0.00 | 54 | 1010.8 |
| 20260508224622 | 60 | 227 | 3.0 | 9.0 | 0.00 | 0.00 | 0.00 | 54 | 1010.7 |
| 20260508224200 | 60 | 276 | 2.0 | 8.0 | 0.00 | 0.00 | 0.00 | 56 | 1010.8 |
| 20260508223643 | 60 | 245 | 1.0 | 8.0 | 0.00 | 0.00 | 0.00 | 57 | 1010.7 |
| 20260508223137 | 60 | 245 | 4.0 | 9.0 | 0.00 | 0.00 | 0.00 | 56 | 1010.7 |
| 20260508222646 | 59 | 212 | 3.0 | 10.0 | 0.00 | 0.00 | 0.00 | 57 | 1010.7 |
| 20260508222118 | 59 | 241 | 5.0 | 10.0 | 0.00 | 0.00 | 0.00 | 56 | 1010.8 |
| 20260508221648 | 60 | 268 | 1.0 | 13.0 | 0.00 | 0.00 | 0.00 | 56 | 1010.8 |
| 20260508221141 | 60 | 251 | 1.0 | 13.0 | 0.00 | 0.00 | 0.00 | 57 | 1011.0 |
| 20260508220627 | 59 | 170 | 2.0 | 13.0 | 0.00 | 0.00 | 0.00 | 59 | 1011.0 |
| 20260508220141 | 58 | 205 | 3.0 | 14.0 | 0.00 | 0.00 | 0.00 | 60 | 1011.2 |
| 20260508215635 | 58 | 204 | 3.0 | 8.0 | 0.00 | 0.00 | 0.00 | 60 | 1011.2 |
| 20260508215121 | 58 | 225 | 4.0 | 10.0 | 0.00 | 0.00 | 0.00 | 60 | 1011.2 |
| 20260508214636 | 58 | 205 | 5.0 | 11.0 | 0.00 | 0.00 | 0.00 | 60 | 1011.3 |
| 20260508214124 | 58 | 195 | 5.0 | 11.0 | 0.00 | 0.00 | 0.00 | 60 | 1011.3 |
| 20260508213658 | 58 | 186 | 3.0 | 23.0 | 0.00 | 0.00 | 0.00 | 59 | 1011.3 |
| 20260508213124 | 58 | 178 | 12.0 | 23.0 | 0.00 | 0.00 | 0.00 | 58 | 1011.3 |
| 20260508212639 | 58 | 233 | 11.0 | 19.0 | 0.00 | 0.00 | 0.00 | 58 | 1011.3 |
| 20260508212127 | 58 | 250 | 11.0 | 17.0 | 0.00 | 0.00 | 0.00 | 58 | 1011.3 |
| 20260508211621 | 58 | 248 | 10.0 | 21.0 | 0.00 | 0.00 | 0.00 | 58 | 1011.2 |
| 20260508211138 | 59 | 254 | 14.0 | 26.0 | 0.00 | 0.00 | 0.00 | 57 | 1011.3 |
| 20260508210646 | 59 | 214 | 9.0 | 25.0 | 0.00 | 0.00 | 0.00 | 57 | 1011.4 |
| 20260508210119 | 59 | 226 | 17.0 | 25.0 | 0.00 | 0.00 | 0.00 | 56 | 1011.4 |
| 20260508205634 | 59 | 244 | 11.0 | 17.0 | 0.00 | 0.00 | 0.00 | 56 | 1011.3 |
| 20260508205140 | 60 | 226 | 11.0 | 18.0 | 0.00 | 0.00 | 0.00 | 55 | 1011.2 |
| 20260508204642 | 60 | 261 | 10.0 | 19.0 | 0.00 | 0.00 | 0.00 | 55 | 1011.1 |
| 20260508204156 | 60 | 185 | 12.0 | 22.0 | 0.00 | 0.00 | 0.00 | 54 | 1011.0 |
| 20260508203622 | 60 | 216 | 12.0 | 21.0 | 0.00 | 0.00 | 0.00 | 54 | 1011.0 |
| 20260508203137 | 60 | 224 | 9.0 | 21.0 | 0.00 | 0.00 | 0.00 | 56 | 1011.1 |
| 20260508202626 | 60 | 257 | 8.0 | 16.0 | 0.00 | 0.00 | 0.00 | 57 | 1011.0 |
| 20260508202137 | 60 | 239 | 7.0 | 13.0 | 0.00 | 0.00 | 0.00 | 57 | 1011.1 |
| 20260508201624 | 60 | 218 | 8.0 | 13.0 | 0.00 | 0.00 | 0.00 | 57 | 1011.0 |
| 20260508201120 | 59 | 223 | 5.0 | 12.0 | 0.00 | 0.00 | 0.00 | 59 | 1011.1 |
| 20260508200633 | 59 | 210 | 4.0 | 11.0 | 0.00 | 0.00 | 0.00 | 59 | 1011.2 |
| 20260508200121 | 58 | 229 | 7.0 | 14.0 | 0.00 | 0.00 | 0.00 | 61 | 1011.3 |
| 20260508195635 | 58 | 245 | 6.0 | 20.0 | 0.00 | 0.00 | 0.00 | 61 | 1011.4 |
| 20260508195124 | 58 | 230 | 14.0 | 30.0 | 0.00 | 0.00 | 0.00 | 60 | 1011.5 |
| 20260508194617 | 58 | 241 | 13.0 | 30.0 | 0.00 | 0.00 | 0.00 | 59 | 1011.6 |
| 20260508194133 | 58 | 247 | 7.0 | 17.0 | 0.00 | 0.00 | 0.00 | 59 | 1011.7 |
| 20260508193620 | 59 | 234 | 7.0 | 14.0 | 0.00 | 0.00 | 0.00 | 57 | 1011.5 |
| 20260508193135 | 59 | 265 | 5.0 | 15.0 | 0.00 | 0.00 | 0.00 | 56 | 1011.3 |
| 20260508192624 | 59 | 278 | 5.0 | 16.0 | 0.00 | 0.00 | 0.00 | 55 | 1011.3 |
| 20260508192117 | 59 | 265 | 9.0 | 21.0 | 0.00 | 0.00 | 0.00 | 53 | 1011.3 |
| 20260508191632 | 60 | 241 | 10.0 | 21.0 | 0.00 | 0.00 | 0.00 | 51 | 1011.4 |
| 20260508191122 | 61 | 247 | 10.0 | 18.0 | 0.00 | 0.00 | 0.00 | 49 | 1011.2 |
| 20260508190634 | 61 | 230 | 7.0 | 19.0 | 0.00 | 0.00 | 0.00 | 49 | 1011.1 |
| 20260508190122 | 62 | 275 | 11.0 | 19.0 | 0.00 | 0.00 | 0.00 | 47 | 1011.0 |
| 20260508185637 | 62 | 241 | 11.0 | 18.0 | 0.00 | 0.00 | 0.00 | 48 | 1011.1 |
| 20260508185144 | 62 | 173 | 9.0 | 15.0 | 0.00 | 0.00 | 0.00 | 47 | 1011.3 |
| 20260508184635 | 62 | 174 | 7.0 | 15.0 | 0.00 | 0.00 | 0.00 | 49 | 1011.1 |
| 20260508184121 | 61 | 218 | 9.0 | 17.0 | 0.00 | 0.00 | 0.00 | 49 | 1011.3 |
| 20260508183615 | 60 | 230 | 4.0 | 17.0 | 0.00 | 0.00 | 0.00 | 49 | 1011.4 |
| 20260508183128 | 60 | 224 | 8.0 | 22.0 | 0.00 | 0.00 | 0.00 | 48 | 1011.5 |
| 20260508182624 | 60 | 178 | 14.0 | 22.0 | 0.00 | 0.00 | 0.00 | 47 | 1011.5 |
| 20260508182157 | 60 | 245 | 12.0 | 22.0 | 0.00 | 0.00 | 0.00 | 47 | 1011.4 |
| 20260508181624 | 60 | 272 | 8.0 | 25.0 | 0.00 | 0.00 | 0.00 | 47 | 1011.4 |
| 20260508181141 | 61 | 257 | 16.0 | 25.0 | 0.00 | 0.00 | 0.00 | 44 | 1011.6 |
| 20260508180626 | 61 | 234 | 8.0 | 21.0 | 0.00 | 0.00 | 0.00 | 44 | 1011.5 |
| 20260508180139 | 62 | 233 | 12.0 | 21.0 | 0.00 | 0.00 | 0.00 | 43 | 1011.4 |
| 20260508175633 | 63 | 197 | 8.0 | 16.0 | 0.00 | 0.00 | 0.00 | 42 | 1011.4 |
| 20260508175120 | 63 | 245 | 2.0 | 18.0 | 0.00 | 0.00 | 0.00 | 44 | 1011.3 |
| 20260508174635 | 63 | 275 | 12.0 | 25.0 | 0.00 | 0.00 | 0.00 | 45 | 1011.5 |
| 20260508174145 | 63 | 257 | 16.0 | 25.0 | 0.00 | 0.00 | 0.00 | 41 | 1011.7 |
| 20260508173657 | 63 | 218 | 8.0 | 16.0 | 0.00 | 0.00 | 0.00 | 45 | 1011.8 |
| 20260508173122 | 62 | 206 | 9.0 | 20.0 | 0.00 | 0.00 | 0.00 | 44 | 1011.6 |
| 20260508172658 | 62 | 232 | 9.0 | 20.0 | 0.00 | 0.00 | 0.00 | 41 | 1011.7 |
| 20260508172123 | 63 | 227 | 11.0 | 18.0 | 0.00 | 0.00 | 0.00 | 44 | 1011.9 |
| 20260508171618 | 62 | 226 | 10.0 | 16.0 | 0.00 | 0.00 | 0.00 | 47 | 1011.8 |
| 20260508171131 | 61 | 243 | 11.0 | 21.0 | 0.00 | 0.00 | 0.00 | 45 | 1011.9 |
| 20260508170625 | 61 | 278 | 10.0 | 21.0 | 0.00 | 0.00 | 0.00 | 45 | 1011.8 |
| 20260508170120 | 61 | 247 | 13.0 | 25.0 | 0.00 | 0.00 | 0.00 | 46 | 1012.0 |
| 20260508165635 | 61 | 244 | 7.0 | 16.0 | 0.00 | 0.00 | 0.00 | 46 | 1012.0 |
| 20260508165120 | 60 | 270 | 8.0 | 18.0 | 0.00 | 0.00 | 0.00 | 45 | 1012.0 |
| 20260508164634 | 60 | 234 | 7.0 | 18.0 | 0.00 | 0.00 | 0.00 | 47 | 1012.1 |
| 20260508164130 | 61 | 232 | 3.0 | 17.0 | 0.00 | 0.00 | 0.00 | 45 | 1012.2 |
| 20260508163624 | 61 | 237 | 11.0 | 19.0 | 0.00 | 0.00 | 0.00 | 48 | 1012.1 |
| 20260508163117 | 60 | 266 | 12.0 | 20.0 | 0.00 | 0.00 | 0.00 | 47 | 1012.2 |
| 20260508162633 | 60 | 220 | 4.0 | 20.0 | 0.00 | 0.00 | 0.00 | 48 | 1012.3 |
| 20260508162140 | 60 | 241 | 7.0 | 18.0 | 0.00 | 0.00 | 0.00 | 49 | 1012.4 |
| 20260508161626 | 60 | 219 | 9.0 | 18.0 | 0.00 | 0.00 | 0.00 | 48 | 1012.4 |
| 20260508161120 | 60 | 306 | 6.0 | 16.0 | 0.00 | 0.00 | 0.00 | 50 | 1012.5 |
| 20260508160653 | 60 | 267 | 6.0 | 13.0 | 0.00 | 0.00 | 0.00 | 54 | 1012.7 |
| 20260508160120 | 58 | 168 | 7.0 | 11.0 | 0.00 | 0.00 | 0.00 | 51 | 1012.6 |
| 20260508155636 | 58 | 283 | 6.0 | 17.0 | 0.00 | 0.00 | 0.00 | 51 | 1012.7 |
| 20260508155144 | 59 | 309 | 12.0 | 17.0 | 0.00 | 0.00 | 0.00 | 50 | 1012.8 |
| 20260508154657 | 58 | 271 | 5.0 | 19.0 | 0.00 | 0.00 | 0.00 | 55 | 1012.8 |
| 20260508154126 | 58 | 262 | 10.0 | 18.0 | 0.00 | 0.00 | 0.00 | 53 | 1012.8 |
| 20260508153619 | 58 | 286 | 5.0 | 17.0 | 0.00 | 0.00 | 0.00 | 51 | 1012.9 |
| 20260508153134 | 57 | 285 | 7.0 | 17.0 | 0.00 | 0.00 | 0.00 | 56 | 1013.0 |
| 20260508152621 | 57 | 237 | 5.0 | 18.0 | 0.00 | 0.00 | 0.00 | 50 | 1012.9 |
| 20260508152135 | 58 | 284 | 12.0 | 18.0 | 0.00 | 0.00 | 0.00 | 50 | 1013.0 |
| 20260508151622 | 58 | 215 | 6.0 | 22.0 | 0.00 | 0.00 | 0.00 | 51 | 1012.8 |
| 20260508151118 | 58 | 266 | 13.0 | 25.0 | 0.00 | 0.00 | 0.00 | 50 | 1012.9 |
| 20260508150647 | 58 | 219 | 13.0 | 24.0 | 0.00 | 0.00 | 0.00 | 49 | 1012.9 |
| 20260508150121 | 58 | 230 | 14.0 | 24.0 | 0.00 | 0.00 | 0.00 | 49 | 1012.8 |
| 20260508145635 | 57 | 190 | 12.0 | 21.0 | 0.00 | 0.00 | 0.00 | 50 | 1012.8 |
| 20260508145128 | 57 | 232 | 12.0 | 19.0 | 0.00 | 0.00 | 0.00 | 51 | 1012.8 |
| 20260508144622 | 56 | 270 | 11.0 | 19.0 | 0.00 | 0.00 | 0.00 | 53 | 1012.9 |
| 20260508144138 | 55 | 195 | 8.0 | 19.0 | 0.00 | 0.00 | 0.00 | 54 | 1013.0 |
| 20260508143625 | 56 | 222 | 11.0 | 25.0 | 0.00 | 0.00 | 0.00 | 51 | 1013.1 |
| 20260508143119 | 56 | 229 | 16.0 | 25.0 | 0.00 | 0.00 | 0.00 | 49 | 1013.1 |
| 20260508142634 | 56 | 251 | 11.0 | 23.0 | 0.00 | 0.00 | 0.00 | 50 | 1013.0 |
| 20260508142120 | 56 | 216 | 14.0 | 23.0 | 0.00 | 0.00 | 0.00 | 49 | 1012.9 |
| 20260508141634 | 56 | 235 | 8.0 | 21.0 | 0.00 | 0.00 | 0.00 | 51 | 1012.9 |
| 20260508141119 | 55 | 274 | 11.0 | 19.0 | 0.00 | 0.00 | 0.00 | 51 | 1012.9 |
| 20260508140635 | 55 | 237 | 13.0 | 19.0 | 0.00 | 0.00 | 0.00 | 52 | 1013.1 |
| 20260508140142 | 55 | 222 | 8.0 | 18.0 | 0.00 | 0.00 | 0.00 | 56 | 1013.2 |
| 20260508135658 | 55 | 179 | 6.0 | 16.0 | 0.00 | 0.00 | 0.00 | 56 | 1013.0 |
| 20260508135124 | 55 | 173 | 9.0 | 16.0 | 0.00 | 0.00 | 0.00 | 58 | 1013.0 |
| 20260508134638 | 55 | 169 | 9.0 | 17.0 | 0.00 | 0.00 | 0.00 | 59 | 1013.0 |
| 20260508134123 | 54 | 169 | 12.0 | 17.0 | 0.00 | 0.00 | 0.00 | 60 | 1013.1 |
| 20260508133656 | 54 | 162 | 9.0 | 16.0 | 0.00 | 0.00 | 0.00 | 60 | 1012.9 |
| 20260508133122 | 53 | 172 | 11.0 | 17.0 | 0.00 | 0.00 | 0.00 | 62 | 1013.0 |
| 20260508132617 | 52 | 196 | 12.0 | 21.0 | 0.00 | 0.00 | 0.00 | 63 | 1013.2 |
| 20260508132125 | 52 | 174 | 13.0 | 22.0 | 0.00 | 0.00 | 0.00 | 63 | 1013.2 |
| 20260508131619 | 51 | 193 | 11.0 | 17.0 | 0.00 | 0.00 | 0.00 | 65 | 1013.2 |
| 20260508131156 | 51 | 195 | 9.0 | 18.0 | 0.00 | 0.00 | 0.00 | 65 | 1013.3 |
| 20260508130628 | 50 | 176 | 9.0 | 18.0 | 0.00 | 0.00 | 0.00 | 64 | 1013.4 |
| 20260508130123 | 50 | 169 | 10.0 | 15.0 | 0.00 | 0.00 | 0.00 | 66 | 1013.4 |
| 20260508125619 | 49 | 203 | 9.0 | 15.0 | 0.00 | 0.00 | 0.00 | 65 | 1013.5 |
| 20260508125132 | 49 | 185 | 8.0 | 16.0 | 0.00 | 0.00 | 0.00 | 66 | 1013.5 |
| 20260508124619 | 48 | 221 | 7.0 | 11.0 | 0.00 | 0.00 | 0.00 | 67 | 1013.6 |
| 20260508124156 | 48 | 212 | 5.0 | 10.0 | 0.00 | 0.00 | 0.00 | 68 | 1013.6 |
| 20260508123621 | 47 | 215 | 6.0 | 11.0 | 0.00 | 0.00 | 0.00 | 70 | 1013.5 |
| 20260508123135 | 46 | 193 | 7.0 | 11.0 | 0.00 | 0.00 | 0.00 | 71 | 1013.5 |
| 20260508122622 | 46 | 187 | 4.0 | 10.0 | 0.00 | 0.00 | 0.00 | 72 | 1013.5 |
| 20260508122137 | 45 | 225 | 5.0 | 11.0 | 0.00 | 0.00 | 0.00 | 74 | 1013.4 |
| 20260508121624 | 45 | 201 | 7.0 | 11.0 | 0.00 | 0.00 | 0.00 | 78 | 1013.4 |
| 20260508121120 | 44 | 178 | 4.0 | 8.0 | 0.00 | 0.00 | 0.00 | 80 | 1013.5 |
| 20260508120633 | 43 | 205 | 2.0 | 5.0 | 0.00 | 0.00 | 0.00 | 83 | 1013.6 |
| 20260508120140 | 42 | 206 | 2.0 | 7.0 | 0.00 | 0.00 | 0.00 | 84 | 1013.7 |
| 20260508115655 | 41 | 180 | 4.0 | 7.0 | 0.00 | 0.00 | 0.00 | 85 | 1013.6 |
| 20260508115120 | 41 | 232 | 2.0 | 5.0 | 0.00 | 0.00 | 0.00 | 86 | 1013.6 |
| 20260508114651 | 40 | 232 | 3.0 | 4.0 | 0.00 | 0.00 | 0.00 | 86 | 1013.5 |
| 20260508114125 | 39 | 220 | 1.0 | 7.0 | 0.00 | 0.00 | 0.00 | 87 | 1013.4 |
| 20260508113638 | 39 | 240 | 3.0 | 7.0 | 0.00 | 0.00 | 0.00 | 87 | 1013.5 |
| 20260508113145 | 38 | 206 | 1.0 | 5.0 | 0.00 | 0.00 | 0.00 | 87 | 1013.5 |
| 20260508112639 | 38 | 205 | 2.0 | 5.0 | 0.00 | 0.00 | 0.00 | 88 | 1013.5 |
| 20260508112133 | 38 | 195 | 1.0 | 5.0 | 0.00 | 0.00 | 0.00 | 88 | 1013.5 |
| 20260508111618 | 37 | 201 | 1.0 | 4.0 | 0.00 | 0.00 | 0.00 | 88 | 1013.4 |
| 20260508111135 | 37 | 182 | 0.0 | 3.0 | 0.00 | 0.00 | 0.00 | 88 | 1013.3 |
| 20260508110640 | 36 | 218 | 1.0 | 2.0 | 0.00 | 0.00 | 0.00 | 88 | 1013.3 |
| 20260508110125 | 36 | 218 | 0.0 | 0.0 | 0.00 | 0.00 | 0.00 | 88 | 1013.3 |
| 20260508105620 | 35 | 220 | 0.0 | 0.0 | 0.00 | 0.00 | 0.00 | 88 | 1013.3 |
| 20260508105134 | 35 | 220 | 0.0 | 0.0 | 0.00 | 0.00 | 0.00 | 88 | 1013.2 |
| 20260508104622 | 35 | 219 | 0.0 | 0.0 | 0.00 | 0.00 | 0.00 | 88 | 1013.1 |
| 20260508104119 | 35 | 220 | 0.0 | 2.0 | 0.00 | 0.00 | 0.00 | 88 | 1013.1 |
| 20260508103633 | 35 | 220 | 0.0 | 2.0 | 0.00 | 0.00 | 0.00 | 88 | 1013.1 |
| 20260508103140 | 34 | 219 | 0.0 | 3.0 | 0.00 | 0.00 | 0.00 | 88 | 1013.1 |
| 20260508102636 | 34 | 221 | 0.0 | 4.0 | 0.00 | 0.00 | 0.00 | 88 | 1013.1 |
| 20260508102144 | 33 | 216 | 2.0 | 4.0 | 0.00 | 0.00 | 0.00 | 88 | 1013.1 |
| 20260508101618 | 33 | 218 | 1.0 | 2.0 | 0.00 | 0.00 | 0.00 | 88 | 1013.0 |
| 20260508101133 | 33 | 216 | 0.0 | 3.0 | 0.00 | 0.00 | 0.00 | 88 | 1013.0 |
| 20260508100620 | 33 | 217 | 1.0 | 3.0 | 0.00 | 0.00 | 0.00 | 88 | 1012.9 |
| 20260508100151 | 33 | 217 | 1.0 | 3.0 | 0.00 | 0.00 | 0.00 | 88 | 1012.9 |
| 20260508095646 | 33 | 220 | 0.0 | 2.0 | 0.00 | 0.00 | 0.00 | 88 | 1012.8 |
| 20260508095159 | 32 | 220 | 0.0 | 2.0 | 0.00 | 0.00 | 0.00 | 87 | 1012.8 |
| 20260508094626 | 32 | 220 | 1.0 | 2.0 | 0.00 | 0.00 | 0.00 | 87 | 1012.9 |
| 20260508094121 | 32 | 220 | 0.0 | 0.0 | 0.00 | 0.00 | 0.00 | 87 | 1013.0 |
| 20260508093634 | 32 | 220 | 0.0 | 0.0 | 0.00 | 0.00 | 0.00 | 87 | 1012.9 |
| 20260508093122 | 33 | 220 | 0.0 | 2.0 | 0.00 | 0.00 | 0.00 | 87 | 1012.9 |
| 20260508092638 | 33 | 220 | 1.0 | 2.0 | 0.00 | 0.00 | 0.00 | 87 | 1013.0 |
| 20260508092145 | 33 | 220 | 1.0 | 2.0 | 0.00 | 0.00 | 0.00 | 87 | 1012.9 |
| 20260508091659 | 33 | 220 | 0.0 | 2.0 | 0.00 | 0.00 | 0.00 | 87 | 1012.8 |
| 20260508091125 | 33 | 221 | 0.0 | 2.0 | 0.00 | 0.00 | 0.00 | 87 | 1012.8 |
| 20260508090620 | 33 | 221 | 1.0 | 3.0 | 0.00 | 0.00 | 0.00 | 87 | 1012.8 |
| 20260508090135 | 33 | 222 | 2.0 | 3.0 | 0.00 | 0.00 | 0.00 | 87 | 1012.9 |
| 20260508085624 | 33 | 222 | 1.0 | 4.0 | 0.00 | 0.00 | 0.00 | 87 | 1013.0 |
| 20260508085158 | 33 | 224 | 3.0 | 4.0 | 0.00 | 0.00 | 0.00 | 87 | 1012.9 |
| 20260508084624 | 33 | 211 | 2.0 | 4.0 | 0.00 | 0.00 | 0.00 | 87 | 1012.8 |
| 20260508084155 | 33 | 224 | 2.0 | 4.0 | 0.00 | 0.00 | 0.00 | 87 | 1012.8 |
| 20260508083621 | 33 | 225 | 1.0 | 3.0 | 0.00 | 0.00 | 0.00 | 86 | 1012.7 |
| 20260508083137 | 33 | 201 | 0.0 | 0.0 | 0.00 | 0.00 | 0.00 | 86 | 1012.6 |
| 20260508082626 | 33 | 202 | 0.0 | 2.0 | 0.00 | 0.00 | 0.00 | 86 | 1012.7 |
| 20260508082119 | 34 | 202 | 0.0 | 3.0 | 0.00 | 0.00 | 0.00 | 86 | 1012.8 |
| 20260508081634 | 34 | 202 | 2.0 | 3.0 | 0.00 | 0.00 | 0.00 | 86 | 1012.7 |
| 20260508081123 | 34 | 204 | 1.0 | 2.0 | 0.00 | 0.00 | 0.00 | 86 | 1012.6 |
| 20260508080637 | 34 | 205 | 1.0 | 2.0 | 0.00 | 0.00 | 0.00 | 86 | 1012.7 |
| 20260508080124 | 34 | 205 | 1.0 | 3.0 | 0.00 | 0.00 | 0.00 | 85 | 1012.7 |
| 20260508075636 | 34 | 205 | 2.0 | 3.0 | 0.00 | 0.00 | 0.00 | 85 | 1012.7 |
| 20260508075119 | 35 | 210 | 0.0 | 2.0 | 0.00 | 0.00 | 0.00 | 85 | 1012.8 |
| 20260508074633 | 35 | 210 | 1.0 | 2.0 | 0.00 | 0.00 | 0.00 | 85 | 1012.8 |
| 20260508074122 | 35 | 211 | 1.0 | 3.0 | 0.00 | 0.00 | 0.00 | 84 | 1012.7 |
| 20260508073635 | 35 | 212 | 1.0 | 3.0 | 0.00 | 0.00 | 0.00 | 84 | 1012.7 |
| 20260508073122 | 36 | 214 | 2.0 | 2.0 | 0.00 | 0.00 | 0.00 | 84 | 1012.6 |
| 20260508072635 | 36 | 214 | 0.0 | 2.0 | 0.00 | 0.00 | 0.00 | 84 | 1012.4 |
| 20260508072121 | 36 | 212 | 1.0 | 2.0 | 0.00 | 0.00 | 0.00 | 84 | 1012.5 |
| 20260508071636 | 37 | 213 | 0.0 | 1.0 | 0.00 | 0.00 | 0.00 | 84 | 1012.6 |
| 20260508071124 | 37 | 213 | 0.0 | 1.0 | 0.00 | 0.00 | 0.00 | 84 | 1012.6 |
| 20260508070618 | 37 | 213 | 0.0 | 2.0 | 0.00 | 0.00 | 0.00 | 83 | 1012.6 |
| 20260508070134 | 37 | 213 | 1.0 | 2.0 | 0.00 | 0.00 | 0.00 | 83 | 1012.6 |
| 20260508065621 | 37 | 214 | 0.0 | 2.0 | 0.00 | 0.00 | 0.00 | 83 | 1012.8 |
| 20260508065135 | 37 | 225 | 1.0 | 3.0 | 0.00 | 0.00 | 0.00 | 82 | 1012.8 |
| 20260508064623 | 38 | 238 | 1.0 | 3.0 | 0.00 | 0.00 | 0.00 | 82 | 1012.9 |
| 20260508064119 | 38 | 205 | 1.0 | 3.0 | 0.00 | 0.00 | 0.00 | 82 | 1012.9 |
| 20260508063634 | 38 | 204 | 0.0 | 2.0 | 0.00 | 0.00 | 0.00 | 82 | 1012.9 |
| 20260508063123 | 38 | 232 | 0.0 | 2.0 | 0.00 | 0.00 | 0.00 | 82 | 1012.9 |
| 20260508062656 | 38 | 245 | 1.0 | 2.0 | 0.00 | 0.00 | 0.00 | 81 | 1012.9 |
| 20260508061643 | 39 | 207 | 0.0 | 5.0 | 0.00 | 0.00 | 0.00 | 80 | 1012.9 |
| 20260508061137 | 39 | 220 | 0.0 | 3.0 | 0.00 | 0.00 | 0.00 | 79 | 1012.9 |
| 20260508060624 | 40 | 228 | 0.0 | 2.0 | 0.00 | 0.00 | 0.00 | 78 | 1012.8 |
| 20260508060140 | 40 | 230 | 0.0 | 5.0 | 0.00 | 0.00 | 0.00 | 77 | 1012.9 |
| 20260508055636 | 41 | 232 | 1.0 | 5.0 | 0.00 | 0.00 | 0.00 | 76 | 1012.9 |
| 20260508055123 | 41 | 279 | 0.0 | 3.0 | 0.00 | 0.00 | 0.00 | 74 | 1012.8 |
| 20260508054617 | 42 | 264 | 0.0 | 1.0 | 0.00 | 0.00 | 0.00 | 74 | 1012.9 |
| 20260508054134 | 42 | 264 | 0.0 | 4.0 | 0.00 | 0.00 | 0.00 | 74 | 1013.0 |
| 20260508053621 | 42 | 264 | 2.0 | 4.0 | 0.00 | 0.00 | 0.00 | 73 | 1013.0 |
| 20260508053136 | 42 | 265 | 0.0 | 0.0 | 0.00 | 0.00 | 0.00 | 73 | 1013.0 |
| 20260508052625 | 42 | 266 | 0.0 | 0.0 | 0.00 | 0.00 | 0.00 | 73 | 1013.1 |
| 20260508052118 | 43 | 185 | 0.0 | 0.0 | 0.00 | 0.00 | 0.00 | 73 | 1013.0 |
| 20260508051633 | 43 | 185 | 0.0 | 0.0 | 0.00 | 0.00 | 0.00 | 73 | 1012.9 |
| 20260508051121 | 43 | 186 | 0.0 | 0.0 | 0.00 | 0.00 | 0.00 | 73 | 1012.9 |
| 20260508050634 | 43 | 251 | 0.0 | 0.0 | 0.00 | 0.00 | 0.00 | 72 | 1012.9 |
| 20260508050121 | 44 | 253 | 0.0 | 0.0 | 0.00 | 0.00 | 0.00 | 71 | 1012.9 |
| 20260508045619 | 44 | 251 | 0.0 | 0.0 | 0.00 | 0.00 | 0.00 | 70 | 1012.8 |
| 20260508045134 | 45 | 251 | 0.0 | 0.0 | 0.00 | 0.00 | 0.00 | 69 | 1012.8 |
| 20260508044642 | 45 | 278 | 0.0 | 0.0 | 0.00 | 0.00 | 0.00 | 67 | 1012.8 |
| 20260508044137 | 46 | 278 | 0.0 | 0.0 | 0.00 | 0.00 | 0.00 | 66 | 1012.9 |
| 20260508043641 | 47 | 297 | 0.0 | 0.0 | 0.00 | 0.00 | 0.00 | 65 | 1012.8 |
| 20260508043135 | 47 | 297 | 0.0 | 9.0 | 0.00 | 0.00 | 0.00 | 64 | 1012.8 |
| 20260508042621 | 47 | 296 | 4.0 | 11.0 | 0.00 | 0.00 | 0.00 | 64 | 1012.6 |
| 20260508042156 | 46 | 301 | 2.0 | 8.0 | 0.00 | 0.00 | 0.00 | 64 | 1012.7 |
| 20260508041623 | 47 | 318 | 0.0 | 0.0 | 0.00 | 0.00 | 0.00 | 64 | 1012.6 |
| 20260508041136 | 47 | 14 | 0.0 | 0.0 | 0.00 | 0.00 | 0.00 | 64 | 1012.6 |
| 20260508040623 | 47 | 14 | 0.0 | 9.0 | 0.00 | 0.00 | 0.00 | 63 | 1012.5 |
| 20260508040117 | 48 | 14 | 0.0 | 9.0 | 0.00 | 0.00 | 0.00 | 62 | 1012.5 |
| 20260508035624 | 48 | 310 | 1.0 | 10.0 | 0.00 | 0.00 | 0.00 | 62 | 1012.4 |
| 20260508035118 | 48 | 326 | 3.0 | 10.0 | 0.00 | 0.00 | 0.00 | 62 | 1012.4 |
| 20260508034632 | 48 | 311 | 1.0 | 5.0 | 0.00 | 0.00 | 0.00 | 63 | 1012.3 |
| 20260508034122 | 49 | 312 | 0.0 | 11.0 | 0.00 | 0.00 | 0.00 | 62 | 1012.3 |
| 20260508033635 | 49 | 315 | 7.0 | 11.0 | 0.00 | 0.00 | 0.00 | 61 | 1012.4 |
| 20260508033121 | 49 | 44 | 0.0 | 11.0 | 0.00 | 0.00 | 0.00 | 61 | 1012.3 |
| 20260508032635 | 49 | 309 | 2.0 | 11.0 | 0.00 | 0.00 | 0.00 | 62 | 1012.2 |
| 20260508032121 | 49 | 331 | 3.0 | 8.0 | 0.00 | 0.00 | 0.00 | 62 | 1012.2 |
| 20260508031635 | 49 | 10 | 1.0 | 10.0 | 0.00 | 0.00 | 0.00 | 62 | 1012.2 |
| 20260508031125 | 49 | 314 | 4.0 | 10.0 | 0.00 | 0.00 | 0.00 | 61 | 1012.3 |
| 20260508030618 | 50 | 47 | 1.0 | 3.0 | 0.00 | 0.00 | 0.00 | 59 | 1012.2 |
| 20260508030132 | 50 | 356 | 1.0 | 9.0 | 0.00 | 0.00 | 0.00 | 58 | 1012.1 |
| 20260508025640 | 51 | 343 | 3.0 | 20.0 | 0.00 | 0.00 | 0.00 | 57 | 1012.0 |
| 20260508025125 | 51 | 303 | 9.0 | 20.0 | 0.00 | 0.00 | 0.00 | 56 | 1012.0 |
| 20260508024619 | 51 | 331 | 9.0 | 18.0 | 0.00 | 0.00 | 0.00 | 56 | 1012.0 |
| 20260508024133 | 52 | 303 | 7.0 | 13.0 | 0.00 | 0.00 | 0.00 | 54 | 1012.0 |
| 20260508023620 | 52 | 19 | 5.0 | 14.0 | 0.00 | 0.00 | 0.00 | 52 | 1011.8 |
| 20260508023115 | 52 | 320 | 9.0 | 14.0 | 0.00 | 0.00 | 0.00 | 51 | 1011.6 |
| 20260508022627 | 53 | 289 | 3.0 | 13.0 | 0.00 | 0.00 | 0.00 | 50 | 1011.5 |
| 20260508022120 | 52 | 295 | 6.0 | 25.0 | 0.00 | 0.00 | 0.00 | 50 | 1011.5 |
| 20260508021633 | 52 | 311 | 10.0 | 25.0 | 0.00 | 0.00 | 0.00 | 51 | 1011.3 |
| 20260508021120 | 52 | 266 | 1.0 | 6.0 | 0.00 | 0.00 | 0.00 | 52 | 1011.2 |
| 20260508020634 | 52 | 272 | 1.0 | 6.0 | 0.00 | 0.00 | 0.00 | 51 | 1011.1 |
| 20260508020128 | 52 | 276 | 1.0 | 8.0 | 0.00 | 0.00 | 0.00 | 52 | 1011.1 |
| 20260508015645 | 52 | 305 | 4.0 | 8.0 | 0.00 | 0.00 | 0.00 | 52 | 1011.0 |
| 20260508015118 | 52 | 228 | 1.0 | 10.0 | 0.00 | 0.00 | 0.00 | 54 | 1011.0 |
| 20260508014632 | 52 | 266 | 0.0 | 12.0 | 0.00 | 0.00 | 0.00 | 53 | 1010.9 |
| 20260508014119 | 50 | 282 | 5.0 | 12.0 | 0.00 | 0.00 | 0.00 | 57 | 1010.7 |
| 20260508013633 | 48 | 261 | 3.0 | 9.0 | 0.00 | 0.00 | 0.00 | 63 | 1010.7 |
| 20260508013120 | 48 | 230 | 3.0 | 8.0 | 0.00 | 0.00 | 0.00 | 65 | 1010.7 |
| 20260508012636 | 47 | 281 | 0.0 | 3.0 | 0.00 | 0.00 | 0.00 | 67 | 1010.6 |
| 20260508012124 | 47 | 280 | 1.0 | 5.0 | 0.00 | 0.00 | 0.00 | 69 | 1010.5 |